sat.trackr.live / text

‹ back to catalog

ONEWEB-0330

NORAD 49108 · 2021-075AK

PAYLOAD ACTIVE UNKNOWN

§ Identity

Operator
Country
UK
Launch date
2021-08-21
Launch site
TYMSC
Launch vehicle
Mass (kg)
RCS (m²)

Purposes: comms

External: N2YO · Heavens-Above · Gunter

§ Orbital elements

Epoch: 2026-05-25T02:54:16.382016Z

Period
109.29 min
Inclination
87.9156°
Eccentricity
0.0001734
Mean motion
13.17648946 rev/d
Perigee alt
1,192.4 km
Apogee alt
1,195.0 km
Semi-major
7,571.9 km
B*
1.0293e-4
RAAN
10.4759°
Arg perigee
92.1424°
Mean anomaly
267.9906°
Rev number
23,058

§ Raw data

ONEWEB-03301 49108U 21075AK  26145.12102294  .00000053  00000+0  10293-3 0  99912 49108  87.9156  10.4759 0001734  92.1424 267.9906 13.17648946230589

JSON: /api/v1/satellites/49108 · /tle

For live sub-satellite position, see the globe view (requires WebGL).

§ Visibility from observer

Set your observer location to see the next 7 days of passes ≥ 10°. The values pass through the URL so the page stays shareable.

No JS? Fill the form by hand. The geolocation button needs JavaScript.